| time (UTC) | temp F | wind direction | speed MPH | gust MPH | rain 1hr in | rain 24hr in | rain mn in | humidity % | barometer mb |
| 20260831061004 | 61 | 193 | 2.0 | 5.0 | 0.00 | 0.41 | 0.00 | 91 | 1005.9 |
| 20260831060005 | 60 | 222 | 2.0 | 6.0 | 0.00 | 0.41 | 0.00 | 91 | 1005.9 |
| 20260831055504 | 60 | 217 | 2.0 | 6.0 | 0.00 | 0.41 | 0.00 | 91 | 1005.9 |
| 20260831055004 | 60 | 214 | 2.0 | 6.0 | 0.00 | 0.41 | 0.00 | 91 | 1005.9 |
| 20260831054504 | 60 | 220 | 1.0 | 6.0 | 0.00 | 0.41 | 0.00 | 91 | 1005.9 |
| 20260831054004 | 60 | 231 | 0.0 | 4.0 | 0.00 | 0.41 | 0.00 | 90 | 1005.9 |
| 20260831053503 | 60 | 311 | 0.0 | 4.0 | 0.00 | 0.41 | 0.00 | 90 | 1005.9 |
| 20260831053004 | 60 | 256 | 1.0 | 8.0 | 0.00 | 0.41 | 0.00 | 90 | 1005.9 |
| 20260831052504 | 60 | 249 | 2.0 | 8.0 | 0.00 | 0.41 | 0.00 | 89 | 1005.9 |
| 20260831052005 | 60 | 246 | 1.0 | 6.0 | 0.00 | 0.41 | 0.00 | 89 | 1005.9 |
| 20260831051503 | 60 | 219 | 2.0 | 6.0 | 0.00 | 0.41 | 0.00 | 89 | 1004.9 |
| 20260831051004 | 60 | 218 | 3.0 | 7.0 | 0.00 | 0.41 | 0.00 | 89 | 1004.9 |
| 20260831050504 | 59 | 232 | 3.0 | 8.0 | 0.00 | 0.41 | 0.00 | 89 | 1004.9 |
| 20260831045503 | 59 | 223 | 2.0 | 8.0 | 0.00 | 0.41 | 0.00 | 90 | 1005.9 |
| 20260831045005 | 59 | 226 | 3.0 | 8.0 | 0.00 | 0.48 | 0.00 | 91 | 1005.9 |
| 20260831044503 | 59 | 230 | 3.0 | 6.0 | 0.00 | 0.48 | 0.00 | 91 | 1005.9 |
| 20260831044005 | 59 | 222 | 2.0 | 5.0 | 0.00 | 0.48 | 0.00 | 91 | 1004.9 |
| 20260831043004 | 60 | 205 | 3.0 | 10.0 | 0.00 | 0.48 | 0.00 | 92 | 1004.9 |
| 20260831042503 | 59 | 222 | 3.0 | 10.0 | 0.00 | 0.48 | 0.00 | 92 | 1005.9 |
| 20260831041503 | 59 | 215 | 2.0 | 6.0 | 0.00 | 0.48 | 0.00 | 93 | 1005.9 |
| 20260831041004 | 59 | 226 | 3.0 | 6.0 | 0.00 | 0.48 | 0.00 | 93 | 1005.9 |
| 20260831035503 | 59 | 229 | 3.0 | 9.0 | 0.00 | 0.48 | 0.00 | 93 | 1004.9 |
| 20260831035005 | 59 | 221 | 2.0 | 7.0 | 0.00 | 0.48 | 0.00 | 94 | 1004.9 |
| 20260831034503 | 59 | 207 | 1.0 | 6.0 | 0.00 | 0.48 | 0.00 | 95 | 1004.9 |
| 20260831034004 | 59 | 214 | 1.0 | 4.0 | 0.00 | 0.48 | 0.00 | 95 | 1004.9 |
| 20260831033503 | 59 | 238 | 2.0 | 6.0 | 0.00 | 0.48 | 0.00 | 95 | 1004.9 |
| 20260831033005 | 59 | 241 | 2.0 | 8.0 | 0.00 | 0.48 | 0.00 | 95 | 1004.9 |
| 20260831032503 | 59 | 223 | 2.0 | 8.0 | 0.00 | 0.48 | 0.00 | 95 | 1005.9 |
| 20260831032005 | 59 | 200 | 2.0 | 6.0 | 0.00 | 0.48 | 0.00 | 96 | 1005.9 |
| 20260831031503 | 60 | 229 | 3.0 | 8.0 | 0.00 | 0.48 | 0.00 | 96 | 1005.9 |
| 20260831031005 | 60 | 238 | 2.0 | 8.0 | 0.00 | 0.48 | 0.00 | 96 | 1004.9 |
| 20260831030503 | 60 | 243 | 1.0 | 5.0 | 0.00 | 0.48 | 0.00 | 96 | 1004.9 |
| 20260831030004 | 60 | 233 | 1.0 | 5.0 | 0.00 | 0.48 | 0.00 | 96 | 1004.9 |
| 20260831025504 | 60 | 226 | 2.0 | 5.0 | 0.00 | 0.48 | 0.00 | 96 | 1005.9 |
| 20260831025004 | 60 | 214 | 2.0 | 9.0 | 0.00 | 0.48 | 0.00 | 96 | 1005.9 |
| 20260831024503 | 60 | 213 | 3.0 | 9.0 | 0.00 | 0.48 | 0.00 | 95 | 1005.9 |
| 20260831024005 | 60 | 213 | 2.0 | 7.0 | 0.00 | 0.48 | 0.00 | 96 | 1005.9 |
| 20260831023503 | 60 | 197 | 1.0 | 5.0 | 0.00 | 0.48 | 0.00 | 96 | 1005.9 |
| 20260831023004 | 60 | 242 | 1.0 | 7.0 | 0.00 | 0.48 | 0.00 | 95 | 1005.9 |
| 20260831022503 | 60 | 257 | 1.0 | 7.0 | 0.00 | 0.48 | 0.00 | 95 | 1005.9 |
| 20260831022005 | 60 | 203 | 2.0 | 6.0 | 0.00 | 0.48 | 0.00 | 95 | 1005.9 |
| 20260831021004 | 60 | 237 | 1.0 | 5.0 | 0.00 | 0.48 | 0.00 | 95 | 1005.9 |
| 20260831020503 | 60 | 195 | 2.0 | 7.0 | 0.00 | 0.48 | 0.00 | 95 | 1005.9 |
| 20260831020005 | 60 | 225 | 2.0 | 7.0 | 0.00 | 0.48 | 0.00 | 95 | 1005.9 |
| 20260831015503 | 60 | 264 | 2.0 | 6.0 | 0.00 | 0.48 | 0.00 | 95 | 1005.9 |
| 20260831015005 | 60 | 245 | 2.0 | 8.0 | 0.00 | 0.48 | 0.00 | 95 | 1005.9 |
| 20260831014503 | 60 | 216 | 3.0 | 10.0 | 0.00 | 0.48 | 0.00 | 95 | 1005.9 |
| 20260831014004 | 60 | 218 | 3.0 | 10.0 | 0.00 | 0.48 | 0.00 | 95 | 1005.9 |
| 20260831013005 | 60 | 206 | 1.0 | 6.0 | 0.00 | 0.48 | 0.00 | 95 | 1005.9 |
| 20260831012503 | 60 | 206 | 1.0 | 6.0 | 0.00 | 0.48 | 0.00 | 95 | 1005.9 |
| 20260831012005 | 60 | 252 | 2.0 | 6.0 | 0.00 | 0.48 | 0.00 | 95 | 1005.9 |
| 20260831011504 | 60 | 259 | 2.0 | 6.0 | 0.00 | 0.48 | 0.00 | 95 | 1005.9 |
| 20260831011004 | 60 | 240 | 1.0 | 5.0 | 0.00 | 0.48 | 0.00 | 95 | 1004.9 |
| 20260831010005 | 60 | 213 | 2.0 | 8.0 | 0.00 | 0.48 | 0.00 | 95 | 1004.9 |
| 20260831005504 | 60 | 220 | 1.0 | 8.0 | 0.00 | 0.48 | 0.00 | 95 | 1005.9 |
| 20260831005004 | 60 | 250 | 2.0 | 5.0 | 0.00 | 0.48 | 0.00 | 95 | 1005.9 |
| 20260831004504 | 60 | 239 | 1.0 | 5.0 | 0.00 | 0.48 | 0.00 | 95 | 1005.9 |
| 20260831004005 | 59 | 271 | 1.0 | 5.0 | 0.00 | 0.48 | 0.00 | 94 | 1005.9 |
| 20260831003004 | 59 | 238 | 1.0 | 5.0 | 0.00 | 0.48 | 0.00 | 94 | 1005.9 |
| 20260831002504 | 59 | 258 | 1.0 | 4.0 | 0.00 | 0.48 | 0.00 | 94 | 1005.9 |
| 20260831001503 | 59 | 239 | 1.0 | 5.0 | 0.00 | 0.48 | 0.00 | 93 | 1005.9 |
| 20260831001005 | 60 | 249 | 1.0 | 4.0 | 0.00 | 0.48 | 0.00 | 92 | 1005.9 |
| 20260831000503 | 60 | 289 | 1.0 | 5.0 | 0.00 | 0.48 | 0.00 | 92 | 1005.9 |
| 20260831000005 | 60 | 307 | 0.0 | 5.0 | 0.00 | 0.48 | 0.00 | 92 | 1005.9 |
| 20260830235503 | 60 | 262 | 3.0 | 14.0 | 0.00 | 0.48 | 0.00 | 92 | 1005.9 |
| 20260830235005 | 60 | 263 | 3.0 | 14.0 | 0.00 | 0.48 | 0.00 | 91 | 1005.9 |
| 20260830234503 | 60 | 276 | 1.0 | 5.0 | 0.00 | 0.48 | 0.00 | 92 | 1005.9 |
| 20260830233005 | 60 | 270 | 1.0 | 8.0 | 0.00 | 0.48 | 0.00 | 91 | 1005.9 |
| 20260830232503 | 60 | 297 | 0.0 | 3.0 | 0.00 | 0.48 | 0.00 | 91 | 1005.9 |
| 20260830232004 | 60 | 292 | 1.0 | 10.0 | 0.00 | 0.48 | 0.00 | 91 | 1005.9 |
| 20260830231503 | 60 | 295 | 4.0 | 12.0 | 0.00 | 0.48 | 0.00 | 91 | 1005.9 |
| 20260830231006 | 60 | 279 | 6.0 | 12.0 | 0.00 | 0.48 | 0.00 | 91 | 1005.9 |
| 20260830230503 | 61 | 270 | 6.0 | 12.0 | 0.00 | 0.48 | 0.00 | 91 | 1005.9 |
| 20260830230004 | 61 | 270 | 6.0 | 16.0 | 0.00 | 0.48 | 0.00 | 92 | 1005.9 |
| 20260830225504 | 61 | 265 | 7.0 | 16.0 | 0.00 | 0.48 | 0.00 | 92 | 1005.9 |
| 20260830225005 | 61 | 267 | 5.0 | 15.0 | 0.00 | 0.48 | 0.00 | 92 | 1005.9 |
| 20260830224503 | 61 | 267 | 4.0 | 12.0 | 0.00 | 0.48 | 0.00 | 92 | 1005.9 |
| 20260830224004 | 61 | 270 | 4.0 | 11.0 | 0.00 | 0.48 | 0.00 | 92 | 1005.9 |
| 20260830223007 | 61 | 264 | 4.0 | 10.0 | 0.00 | 0.48 | 0.00 | 92 | 1005.9 |
| 20260830222504 | 61 | 275 | 3.0 | 8.0 | 0.00 | 0.48 | 0.00 | 92 | 1005.9 |
| 20260830222005 | 61 | 272 | 3.0 | 14.0 | 0.00 | 0.48 | 0.00 | 92 | 1005.9 |
| 20260830221504 | 60 | 273 | 4.0 | 14.0 | 0.00 | 0.48 | 0.00 | 92 | 1005.9 |
| 20260830221005 | 61 | 263 | 5.0 | 16.0 | 0.00 | 0.48 | 0.00 | 91 | 1004.9 |
| 20260830220504 | 61 | 261 | 5.0 | 16.0 | 0.00 | 0.48 | 0.00 | 91 | 1004.9 |
| 20260830220004 | 61 | 265 | 5.0 | 10.0 | 0.00 | 0.48 | 0.00 | 91 | 1004.9 |
| 20260830215503 | 61 | 263 | 6.0 | 12.0 | 0.00 | 0.48 | 0.48 | 91 | 1005.9 |
| 20260830215004 | 61 | 275 | 5.0 | 12.0 | 0.00 | 0.48 | 0.48 | 92 | 1005.9 |
| 20260830214503 | 61 | 280 | 4.0 | 9.0 | 0.00 | 0.48 | 0.48 | 92 | 1005.9 |
| 20260830214005 | 61 | 274 | 3.0 | 11.0 | 0.00 | 0.48 | 0.48 | 92 | 1004.9 |
| 20260830213504 | 61 | 274 | 4.0 | 12.0 | 0.00 | 0.48 | 0.48 | 92 | 1004.9 |
| 20260830213005 | 61 | 271 | 7.0 | 17.0 | 0.00 | 0.48 | 0.48 | 92 | 1004.9 |
| 20260830212503 | 61 | 274 | 8.0 | 17.0 | 0.00 | 0.48 | 0.48 | 92 | 1005.9 |
| 20260830212005 | 61 | 282 | 6.0 | 15.0 | 0.00 | 0.48 | 0.48 | 92 | 1005.9 |
| 20260830211503 | 61 | 282 | 5.0 | 12.0 | 0.00 | 0.48 | 0.48 | 92 | 1005.9 |
| 20260830210504 | 61 | 270 | 7.0 | 15.0 | 0.00 | 0.48 | 0.48 | 93 | 1005.9 |
| 20260830205503 | 62 | 276 | 8.0 | 18.0 | 0.00 | 0.48 | 0.48 | 93 | 1005.9 |
| 20260830204004 | 62 | 273 | 6.0 | 14.0 | 0.00 | 0.48 | 0.48 | 95 | 1005.9 |
| 20260830203006 | 62 | 258 | 7.0 | 14.0 | 0.00 | 0.48 | 0.48 | 94 | 1005.9 |
| 20260830202503 | 62 | 270 | 7.0 | 17.0 | 0.00 | 0.48 | 0.48 | 94 | 1005.9 |
| 20260830202005 | 62 | 278 | 6.0 | 17.0 | 0.00 | 0.48 | 0.48 | 95 | 1005.9 |
| 20260830201503 | 62 | 273 | 6.0 | 12.0 | 0.00 | 0.48 | 0.48 | 95 | 1005.9 |
| 20260830200504 | 62 | 282 | 5.0 | 11.0 | 0.00 | 0.48 | 0.48 | 96 | 1004.9 |
| 20260830200004 | 62 | 271 | 6.0 | 12.0 | 0.00 | 0.48 | 0.48 | 95 | 1004.9 |
| 20260830195503 | 62 | 267 | 7.0 | 13.0 | 0.00 | 0.48 | 0.48 | 96 | 1004.9 |
| 20260830195005 | 62 | 276 | 7.0 | 13.0 | 0.00 | 0.48 | 0.48 | 96 | 1004.9 |
| 20260830194503 | 62 | 277 | 7.0 | 13.0 | 0.00 | 0.48 | 0.48 | 96 | 1004.9 |
| 20260830194006 | 62 | 270 | 6.0 | 13.0 | 0.00 | 0.48 | 0.48 | 96 | 1003.9 |
| 20260830193503 | 62 | 281 | 5.0 | 12.0 | 0.00 | 0.48 | 0.48 | 97 | 1003.9 |
| 20260830193005 | 62 | 275 | 5.0 | 10.0 | 0.00 | 0.48 | 0.48 | 97 | 1003.9 |
| 20260830192503 | 62 | 276 | 6.0 | 11.0 | 0.00 | 0.48 | 0.48 | 97 | 1003.9 |
| 20260830192004 | 62 | 274 | 6.0 | 12.0 | 0.00 | 0.48 | 0.48 | 97 | 1003.9 |
| 20260830191504 | 62 | 274 | 6.0 | 12.0 | 0.00 | 0.48 | 0.48 | 97 | 1003.9 |
| 20260830191005 | 62 | 283 | 6.0 | 12.0 | 0.00 | 0.48 | 0.48 | 97 | 1003.9 |
| 20260830190504 | 62 | 269 | 6.0 | 12.0 | 0.00 | 0.48 | 0.48 | 97 | 1003.9 |
| 20260830185503 | 62 | 275 | 6.0 | 11.0 | 0.00 | 0.48 | 0.48 | 97 | 1003.9 |
| 20260830185005 | 62 | 273 | 6.0 | 11.0 | 0.00 | 0.48 | 0.48 | 97 | 1003.9 |
| 20260830184503 | 62 | 283 | 7.0 | 11.0 | 0.00 | 0.48 | 0.48 | 97 | 1003.9 |
| 20260830184006 | 62 | 279 | 7.0 | 10.0 | 0.00 | 0.48 | 0.48 | 97 | 1002.9 |
| 20260830183503 | 62 | 279 | 7.0 | 12.0 | 0.00 | 0.48 | 0.48 | 97 | 1002.9 |
| 20260830183005 | 62 | 282 | 7.0 | 12.0 | 0.00 | 0.48 | 0.48 | 97 | 1002.9 |
| 20260830182503 | 62 | 274 | 7.0 | 14.0 | 0.00 | 0.48 | 0.48 | 97 | 1003.9 |
| 20260830182005 | 62 | 282 | 7.0 | 14.0 | 0.00 | 0.48 | 0.48 | 97 | 1003.9 |
| 20260830181503 | 63 | 290 | 5.0 | 11.0 | 0.00 | 0.48 | 0.48 | 97 | 1003.9 |
| 20260830180005 | 63 | 288 | 4.0 | 10.0 | 0.00 | 0.48 | 0.48 | 97 | 1002.9 |
| 20260830175005 | 63 | 276 | 5.0 | 8.0 | 0.00 | 0.48 | 0.48 | 97 | 1002.9 |
| 20260830174504 | 63 | 269 | 4.0 | 11.0 | 0.00 | 0.48 | 0.48 | 97 | 1002.9 |
| 20260830174004 | 63 | 261 | 4.0 | 11.0 | 0.00 | 0.48 | 0.48 | 97 | 1002.9 |
| 20260830173503 | 63 | 270 | 6.0 | 11.0 | 0.00 | 0.48 | 0.48 | 97 | 1002.9 |
| 20260830172503 | 63 | 258 | 6.0 | 14.0 | 0.00 | 0.53 | 0.48 | 97 | 1002.9 |
| 20260830172004 | 64 | 258 | 5.0 | 10.0 | 0.00 | 0.53 | 0.48 | 97 | 1002.9 |
| 20260830171504 | 64 | 262 | 5.0 | 13.0 | 0.00 | 0.53 | 0.48 | 97 | 1002.9 |
| 20260830171005 | 64 | 266 | 6.0 | 15.0 | 0.00 | 0.53 | 0.48 | 97 | 1001.9 |
| 20260830170006 | 64 | 272 | 6.0 | 12.0 | 0.00 | 0.53 | 0.48 | 97 | 1001.9 |
| 20260830165503 | 64 | 263 | 5.0 | 12.0 | 0.00 | 0.53 | 0.48 | 97 | 1001.9 |
| 20260830164004 | 65 | 281 | 5.0 | 12.0 | 0.00 | 0.53 | 0.48 | 97 | 1001.9 |
| 20260830163503 | 65 | 268 | 5.0 | 12.0 | 0.00 | 0.53 | 0.48 | 97 | 1001.9 |
| 20260830163005 | 65 | 267 | 5.0 | 12.0 | 0.00 | 0.53 | 0.48 | 97 | 1001.9 |
| 20260830162503 | 65 | 272 | 6.0 | 11.0 | 0.00 | 0.53 | 0.48 | 97 | 1001.9 |
| 20260830162004 | 65 | 276 | 6.0 | 13.0 | 0.00 | 0.53 | 0.48 | 97 | 1001.9 |
| 20260830161005 | 65 | 275 | 3.0 | 9.0 | 0.00 | 0.53 | 0.48 | 97 | 1000.9 |
| 20260830160503 | 65 | 276 | 2.0 | 6.0 | 0.00 | 0.53 | 0.48 | 97 | 1000.9 |
| 20260830160006 | 65 | 286 | 1.0 | 6.0 | 0.00 | 0.53 | 0.48 | 97 | 1000.9 |
| 20260830155004 | 65 | 276 | 5.0 | 12.0 | 0.00 | 0.53 | 0.48 | 97 | 1000.9 |
| 20260830154503 | 65 | 289 | 3.0 | 9.0 | 0.00 | 0.53 | 0.48 | 97 | 1000.9 |
| 20260830154006 | 65 | 286 | 2.0 | 8.0 | 0.00 | 0.53 | 0.48 | 97 | 1000.9 |
| 20260830153503 | 66 | 268 | 3.0 | 10.0 | 0.00 | 0.53 | 0.48 | 97 | 1000.9 |
| 20260830153006 | 66 | 271 | 4.0 | 10.0 | 0.00 | 0.53 | 0.48 | 97 | 1000.9 |
| 20260830152503 | 66 | 279 | 2.0 | 9.0 | 0.00 | 0.53 | 0.48 | 97 | 1000.9 |
| 20260830151504 | 67 | 239 | 3.0 | 8.0 | 0.00 | 0.53 | 0.48 | 97 | 1000.9 |
| 20260830151005 | 67 | 236 | 3.0 | 8.0 | 0.00 | 0.53 | 0.48 | 97 | 1000.9 |
| 20260830150503 | 67 | 223 | 3.0 | 7.0 | 0.00 | 0.53 | 0.48 | 97 | 1000.9 |
| 20260830150005 | 67 | 219 | 3.0 | 10.0 | 0.00 | 0.53 | 0.48 | 97 | 1000.9 |
| 20260830145503 | 67 | 223 | 4.0 | 10.0 | 0.00 | 0.53 | 0.48 | 97 | 1000.9 |
| 20260830145005 | 67 | 225 | 3.0 | 10.0 | 0.00 | 0.53 | 0.48 | 97 | 1000.9 |
| 20260830144503 | 67 | 215 | 3.0 | 8.0 | 0.00 | 0.53 | 0.48 | 97 | 1000.9 |
| 20260830144005 | 67 | 216 | 3.0 | 8.0 | 0.00 | 0.53 | 0.48 | 97 | 1000.9 |
| 20260830143004 | 67 | 197 | 5.0 | 10.0 | 0.00 | 0.53 | 0.48 | 97 | 1000.9 |
| 20260830142504 | 66 | 195 | 4.0 | 9.0 | 0.00 | 0.53 | 0.48 | 97 | 999.9 |
| 20260830142004 | 66 | 194 | 7.0 | 13.0 | 0.00 | 0.53 | 0.48 | 97 | 999.9 |
| 20260830141005 | 66 | 199 | 7.0 | 12.0 | 0.00 | 0.53 | 0.48 | 97 | 999.9 |
| 20260830140503 | 66 | 192 | 7.0 | 14.0 | 0.00 | 0.53 | 0.48 | 97 | 999.9 |
| 20260830140005 | 66 | 195 | 7.0 | 14.0 | 0.00 | 0.53 | 0.48 | 97 | 999.9 |
| 20260830135504 | 66 | 192 | 7.0 | 12.0 | 0.00 | 0.53 | 0.48 | 97 | 999.9 |
| 20260830135004 | 66 | 193 | 8.0 | 12.0 | 0.00 | 0.53 | 0.48 | 97 | 999.9 |
| 20260830134503 | 66 | 198 | 7.0 | 12.0 | 0.00 | 0.53 | 0.48 | 97 | 999.9 |
| 20260830134005 | 66 | 188 | 7.0 | 13.0 | 0.00 | 0.48 | 0.42 | 97 | 999.9 |
| 20260830133005 | 66 | 199 | 5.0 | 12.0 | 0.00 | 0.48 | 0.42 | 96 | 999.9 |
| 20260830132504 | 66 | 193 | 7.0 | 17.0 | 0.00 | 0.41 | 0.36 | 96 | 999.9 |
| 20260830132004 | 67 | 183 | 5.0 | 17.0 | 0.00 | 0.41 | 0.31 | 96 | 999.9 |
| 20260830131504 | 67 | 166 | 3.0 | 8.0 | 0.00 | 0.41 | 0.31 | 96 | 999.9 |
| 20260830131005 | 67 | 175 | 5.0 | 8.0 | 0.00 | 0.41 | 0.31 | 96 | 999.9 |
| 20260830130503 | 67 | 196 | 5.0 | 19.0 | 0.00 | 0.36 | 0.26 | 96 | 999.9 |
| 20260830125005 | 67 | 178 | 7.0 | 16.0 | 0.00 | 0.36 | 0.26 | 96 | 999.9 |
| 20260830124004 | 67 | 182 | 6.0 | 15.0 | 0.00 | 0.36 | 0.26 | 96 | 999.9 |
| 20260830123504 | 67 | 190 | 5.0 | 10.0 | 0.00 | 0.36 | 0.26 | 96 | 999.9 |
| 20260830123004 | 67 | 171 | 5.0 | 10.0 | 0.00 | 0.36 | 0.26 | 96 | 999.9 |
| 20260830122503 | 67 | 166 | 6.0 | 11.0 | 0.00 | 0.36 | 0.26 | 97 | 999.9 |
| 20260830122005 | 67 | 174 | 5.0 | 11.0 | 0.00 | 0.36 | 0.26 | 97 | 999.9 |
| 20260830121005 | 67 | 177 | 4.0 | 10.0 | 0.00 | 0.36 | 0.26 | 97 | 1000.9 |
| 20260830120504 | 67 | 179 | 3.0 | 10.0 | 0.00 | 0.36 | 0.26 | 96 | 1000.9 |
| 20260830120005 | 67 | 183 | 4.0 | 11.0 | 0.00 | 0.36 | 0.26 | 97 | 1000.9 |
| 20260830115504 | 67 | 178 | 5.0 | 11.0 | 0.00 | 0.36 | 0.26 | 97 | 1000.9 |
| 20260830115004 | 67 | 161 | 6.0 | 14.0 | 0.00 | 0.36 | 0.26 | 97 | 1000.9 |
| 20260830114504 | 66 | 159 | 7.0 | 14.0 | 0.00 | 0.36 | 0.26 | 97 | 1000.9 |
| 20260830114005 | 67 | 170 | 6.0 | 10.0 | 0.00 | 0.36 | 0.26 | 97 | 999.9 |
| 20260830113503 | 66 | 179 | 6.0 | 11.0 | 0.00 | 0.36 | 0.26 | 97 | 999.9 |
| 20260830113004 | 66 | 182 | 6.0 | 12.0 | 0.00 | 0.36 | 0.26 | 97 | 999.9 |
| 20260830112005 | 66 | 172 | 5.0 | 11.0 | 0.00 | 0.36 | 0.26 | 97 | 1000.9 |
| 20260830111503 | 66 | 185 | 5.0 | 11.0 | 0.00 | 0.36 | 0.26 | 100 | 1000.9 |
| 20260830111006 | 66 | 178 | 6.0 | 12.0 | 0.00 | 0.36 | 0.26 | 100 | 1000.9 |
| 20260830110503 | 66 | 172 | 5.0 | 12.0 | 0.00 | 0.36 | 0.26 | 100 | 1000.9 |
| 20260830110006 | 66 | 186 | 4.0 | 9.0 | 0.00 | 0.36 | 0.26 | 100 | 1000.9 |
| 20260830105503 | 65 | 174 | 6.0 | 13.0 | 0.00 | 0.36 | 0.26 | 100 | 1000.9 |
| 20260830104504 | 65 | 142 | 5.0 | 9.0 | 0.00 | 0.36 | 0.26 | 100 | 1000.9 |
| 20260830104004 | 65 | 138 | 7.0 | 11.0 | 0.00 | 0.36 | 0.26 | 100 | 1000.9 |
| 20260830103504 | 65 | 128 | 7.0 | 11.0 | 0.00 | 0.36 | 0.26 | 100 | 1000.9 |
| 20260830103005 | 64 | 130 | 6.0 | 13.0 | 0.00 | 0.36 | 0.26 | 100 | 1000.9 |
| 20260830102504 | 64 | 141 | 4.0 | 13.0 | 0.00 | 0.36 | 0.26 | 100 | 1000.9 |
| 20260830102004 | 64 | 157 | 2.0 | 7.0 | 0.00 | 0.36 | 0.26 | 100 | 1000.9 |
| 20260830101503 | 64 | 177 | 2.0 | 6.0 | 0.00 | 0.36 | 0.26 | 100 | 1000.9 |
| 20260830101004 | 64 | 167 | 3.0 | 7.0 | 0.00 | 0.36 | 0.26 | 100 | 1001.9 |
| 20260830100005 | 63 | 126 | 3.0 | 8.0 | 0.00 | 0.36 | 0.26 | 100 | 1001.9 |
| 20260830095504 | 63 | 140 | 4.0 | 7.0 | 0.00 | 0.36 | 0.26 | 100 | 1001.9 |
| 20260830095004 | 63 | 153 | 3.0 | 8.0 | 0.00 | 0.36 | 0.26 | 100 | 1001.9 |
| 20260830094005 | 63 | 131 | 1.0 | 7.0 | 0.00 | 0.36 | 0.26 | 100 | 1001.9 |
| 20260830093004 | 63 | 116 | 4.0 | 8.0 | 0.00 | 0.36 | 0.26 | 100 | 1001.9 |
| 20260830092504 | 63 | 122 | 3.0 | 8.0 | 0.00 | 0.31 | 0.21 | 100 | 1001.9 |
| 20260830092004 | 63 | 122 | 2.0 | 5.0 | 0.00 | 0.31 | 0.21 | 100 | 1001.9 |
| 20260830091503 | 63 | 113 | 3.0 | 7.0 | 0.00 | 0.31 | 0.21 | 100 | 1001.9 |
| 20260830091005 | 63 | 120 | 4.0 | 9.0 | 0.00 | 0.31 | 0.21 | 100 | 1001.9 |
| 20260830090503 | 63 | 124 | 5.0 | 10.0 | 0.00 | 0.31 | 0.21 | 100 | 1001.9 |
| 20260830090006 | 63 | 121 | 4.0 | 10.0 | 0.00 | 0.26 | 0.16 | 100 | 1001.9 |
| 20260830085004 | 63 | 117 | 4.0 | 8.0 | 0.00 | 0.21 | 0.11 | 100 | 1001.9 |
| 20260830084504 | 63 | 117 | 2.0 | 8.0 | 0.00 | 0.21 | 0.11 | 100 | 1001.9 |
| 20260830084004 | 63 | 114 | 1.0 | 7.0 | 0.00 | 0.21 | 0.11 | 100 | 1002.9 |
| 20260830083503 | 63 | 110 | 2.0 | 7.0 | 0.00 | 0.21 | 0.11 | 100 | 1002.9 |
| 20260830083006 | 63 | 129 | 2.0 | 9.0 | 0.00 | 0.21 | 0.11 | 100 | 1002.9 |
| 20260830082503 | 63 | 122 | 2.0 | 9.0 | 0.00 | 0.21 | 0.11 | 100 | 1000.9 |
| 20260830082004 | 63 | 109 | 2.0 | 9.0 | 0.00 | 0.21 | 0.11 | 100 | 1000.9 |
| 20260830081006 | 63 | 124 | 5.0 | 9.0 | 0.00 | 0.21 | 0.11 | 100 | 1001.9 |
| 20260830080503 | 63 | 128 | 5.0 | 9.0 | 0.00 | 0.21 | 0.11 | 100 | 1001.9 |
| 20260830080006 | 62 | 118 | 5.0 | 11.0 | 0.00 | 0.21 | 0.11 | 100 | 1001.9 |
| 20260830075503 | 62 | 106 | 5.0 | 11.0 | 0.00 | 0.21 | 0.11 | 100 | 1001.9 |
| 20260830075005 | 62 | 102 | 6.0 | 10.0 | 0.00 | 0.21 | 0.11 | 100 | 1001.9 |
| 20260830074503 | 62 | 109 | 6.0 | 10.0 | 0.00 | 0.21 | 0.11 | 100 | 1001.9 |
| 20260830074004 | 62 | 115 | 6.0 | 10.0 | 0.00 | 0.16 | 0.06 | 100 | 1001.9 |
| 20260830073503 | 62 | 113 | 7.0 | 11.0 | 0.00 | 0.16 | 0.06 | 100 | 1001.9 |
| 20260830073004 | 62 | 107 | 6.0 | 12.0 | 0.00 | 0.16 | 0.06 | 100 | 1001.9 |
| 20260830072503 | 63 | 99 | 5.0 | 12.0 | 0.00 | 0.16 | 0.06 | 100 | 1001.9 |
| 20260830071503 | 63 | 96 | 6.0 | 10.0 | 0.00 | 0.16 | 0.06 | 100 | 1001.9 |
| 20260830071005 | 62 | 96 | 6.0 | 10.0 | 0.00 | 0.16 | 0.06 | 100 | 1001.9 |
| 20260830070503 | 62 | 99 | 5.0 | 10.0 | 0.00 | 0.16 | 0.06 | 100 | 1001.9 |
| 20260830070005 | 62 | 99 | 5.0 | 10.0 | 0.00 | 0.16 | 0.06 | 100 | 1001.9 |
| 20260830065503 | 62 | 101 | 5.0 | 10.0 | 0.00 | 0.16 | 0.06 | 100 | 1002.9 |
| 20260830065005 | 62 | 109 | 5.0 | 10.0 | 0.00 | 0.16 | 0.06 | 100 | 1002.9 |
| 20260830064005 | 62 | 107 | 5.0 | 8.0 | 0.00 | 0.16 | 0.06 | 100 | 1001.9 |
| 20260830063504 | 62 | 101 | 3.0 | 8.0 | 0.00 | 0.16 | 0.06 | 100 | 1001.9 |
| 20260830063005 | 62 | 99 | 3.0 | 7.0 | 0.00 | 0.16 | 0.06 | 100 | 1001.9 |
| 20260830062503 | 61 | 103 | 4.0 | 8.0 | 0.00 | 0.16 | 0.06 | 100 | 1001.9 |
| 20260830062004 | 61 | 104 | 3.0 | 8.0 | 0.00 | 0.16 | 0.06 | 100 | 1001.9 |
| 20260830061504 | 61 | 103 | 3.0 | 7.0 | 0.00 | 0.16 | 0.06 | 100 | 1001.9 |